Location: Brunsen
(51.8651°N, 9.8610°E)
Time: 17:00:25
(UTC+00:00)

Cosmos 1300 - Pass Details

Date: 23 May 2024
Orbit: 465 x 467 km, 82.5° (Epoch: 23 June)

Event Time Altitude Azimuth Distance (km) Brightness Sun altitude
Rises 00:56:08 0° 335° (NNW) 2,521 6.8 -14.3°
Reaches altitude 10° 00:58:45 10° 315° (NW) 1,636 5.5 -14.2°
Maximum altitude 01:01:06 17° 273° (W) 1,265 4.5 -14.0°
Enters shadow 01:02:04 15° 253° (WSW) 1,333 4.4 -14.0°
